| time (UTC) | temp F | wind direction | speed MPH | gust MPH | rain 1hr in | rain 24hr in | rain mn in | humidity % | barometer mb |
| 20260504220013 | 0 | 205 | 4.0 | 9.0 | 0.01 | 0.21 | 0.00 | 1008.4 | |
| 20260504214508 | 0 | 210 | 1.0 | 8.0 | 0.00 | 0.20 | 0.20 | 1008.6 | |
| 20260504213005 | 0 | 211 | 2.0 | 5.0 | 0.01 | 0.20 | 0.20 | 1008.7 | |
| 20260504211502 | 0 | 211 | 0.0 | 0.0 | 0.02 | 0.20 | 0.20 | 1008.6 | |
| 20260504210108 | 0 | 211 | 0.0 | 5.0 | 0.02 | 0.20 | 0.20 | 1008.4 | |
| 20260504204602 | 0 | 211 | 3.0 | 7.0 | 0.02 | 0.20 | 0.20 | 1008.4 | |
| 20260504203103 | 0 | 290 | 3.0 | 5.0 | 0.02 | 0.20 | 0.20 | 1008.5 | |
| 20260504201546 | 0 | 290 | 0.0 | 2.0 | 0.01 | 0.19 | 0.19 | 1008.4 | |
| 20260504200041 | 0 | 290 | 0.0 | 2.0 | 0.02 | 0.19 | 0.19 | 1008.4 | |
| 20260504194537 | 0 | 290 | 1.0 | 8.0 | 0.02 | 0.19 | 0.19 | 1008.5 | |
| 20260504193032 | 0 | 296 | 3.0 | 6.0 | 0.01 | 0.18 | 0.18 | 1008.4 | |
| 20260504191528 | 0 | 5 | 2.0 | 7.0 | 0.01 | 0.18 | 0.18 | 1008.3 | |
| 20260504190023 | 0 | 280 | 1.0 | 4.0 | 0.00 | 0.17 | 0.17 | 1008.1 | |
| 20260504184519 | 0 | 280 | 2.0 | 8.0 | 0.00 | 0.17 | 0.17 | 1008.1 | |
| 20260504183015 | 0 | 290 | 1.0 | 8.0 | 0.00 | 0.17 | 0.17 | 1008.0 | |
| 20260504181510 | 0 | 325 | 6.0 | 10.0 | 0.00 | 0.17 | 0.17 | 1007.7 | |
| 20260504180007 | 0 | 137 | 1.0 | 9.0 | 0.00 | 0.17 | 0.17 | 1007.4 | |
| 20260504174501 | 0 | 306 | 9.0 | 21.0 | 0.01 | 0.17 | 0.17 | 1007.5 | |
| 20260504173100 | 0 | 5 | 9.0 | 15.0 | 0.01 | 0.17 | 0.17 | 1007.1 | |
| 20260504171555 | 0 | 342 | 7.0 | 14.0 | 0.02 | 0.17 | 0.17 | 1007.0 | |
| 20260504081558 | 0 | 36 | 3.0 | 7.0 | 0.02 | 0.13 | 0.13 | 1005.2 | |
| 20260504050111 | 0 | 360 | 7.0 | 25.0 | 0.00 | 0.08 | 0.08 | 1004.5 | |
| 20260504044550 | 0 | 282 | 2.0 | 7.0 | 0.00 | 0.08 | 0.08 | 1003.9 | |
| 20260504043047 | 0 | 290 | 3.0 | 11.0 | 0.01 | 0.08 | 0.08 | 1003.9 | |
| 20260504041539 | 0 | 309 | 3.0 | 8.0 | 0.02 | 0.08 | 0.08 | 1004.0 | |
| 20260504040035 | 0 | 5 | 7.0 | 12.0 | 0.03 | 0.08 | 0.08 | 1004.1 | |
| 20260504034531 | 0 | 348 | 4.0 | 12.0 | 0.04 | 0.08 | 0.08 | 1004.3 | |
| 20260504033031 | 0 | 342 | 5.0 | 10.0 | 0.05 | 0.07 | 0.07 | 1004.2 | |
| 20260504031524 | 0 | 302 | 3.0 | 9.0 | 0.05 | 0.06 | 0.06 | 1004.0 | |
| 20260504030019 | 0 | 347 | 2.0 | 7.0 | 0.04 | 0.05 | 0.05 | 1004.1 | |
| 20260504024514 | 0 | 347 | 1.0 | 6.0 | 0.04 | 0.04 | 0.04 | 1004.1 | |
| 20260504023010 | 0 | 347 | 1.0 | 10.0 | 0.02 | 0.02 | 0.02 | 1003.9 | |
| 20260504021506 | 0 | 295 | 6.0 | 9.0 | 0.02 | 0.02 | 0.02 | 1003.6 | |
| 20260504020001 | 0 | 306 | 1.0 | 14.0 | 0.01 | 0.01 | 0.01 | 1003.4 | |
| 20260504014602 | 0 | 294 | 7.0 | 11.0 | 0.00 | 0.00 | 0.00 | 1003.0 | |
| 20260504013103 | 0 | 324 | 5.0 | 7.0 | 0.00 | 0.00 | 0.00 | 1002.9 | |
| 20260504011549 | 0 | 164 | 2.0 | 6.0 | 0.00 | 0.00 | 0.00 | 1002.7 | |
| 20260504010051 | 0 | 266 | 0.0 | 6.0 | 0.00 | 0.00 | 0.00 | 1002.6 | |
| 20260504004540 | 0 | 266 | 0.0 | 8.0 | 0.00 | 0.00 | 0.00 | 1002.6 | |
| 20260504003037 | 0 | 210 | 5.0 | 16.0 | 0.00 | 0.00 | 0.00 | 1002.3 | |
| 20260504001533 | 0 | 180 | 10.0 | 19.0 | 0.00 | 0.00 | 0.00 | 1002.1 | |
| 20260504000038 | 0 | 173 | 9.0 | 16.0 | 0.00 | 0.00 | 0.00 | 1001.9 | |
| 20260503234521 | 0 | 192 | 10.0 | 20.0 | 0.00 | 0.00 | 0.00 | 1001.7 | |
| 20260503233020 | 0 | 180 | 8.0 | 16.0 | 0.00 | 0.00 | 0.00 | 1001.6 | |
| 20260503231512 | 0 | 183 | 8.0 | 22.0 | 0.00 | 0.00 | 0.00 | 1001.9 | |
| 20260503230008 | 0 | 203 | 4.0 | 16.0 | 0.00 | 0.00 | 0.00 | 1002.2 | |
| 20260503224503 | 0 | 169 | 12.0 | 23.0 | 0.00 | 0.00 | 0.00 | 1002.2 | |
| 20260503223059 | 0 | 207 | 13.0 | 24.0 | 0.00 | 0.00 | 0.00 | 1002.4 | |
| 20260503221600 | 0 | 182 | 12.0 | 19.0 | 0.00 | 0.00 | 0.00 | 1002.8 |